Location: Aydie
(43.5695°N, 0.1043°W)
Time: 05:34:06
(UTC+00:00)

BREEZE-M DEB (TANK) - Pass Details

Date: 17 November 2025
Orbit: 304 x 15920 km, 49.4° (Epoch: 03 December)

Event Time Altitude Azimuth Distance (km) Brightness Sun altitude
Rises 17:20:26 0° 250° (WSW) 2,002 7.7 -8.7°
Reaches altitude 10° 17:21:54 10° 253° (WSW) 1,241 5.9 -9.0°
Maximum altitude 17:24:09 68° 338° (NNW) 462 1.9 -9.4°
Enters shadow 17:28:08 12° 62° (ENE) 2,212 4.7 -10.1°
